TimeEST,TemperatureF,Dew PointF,Humidity,Sea Level PressureIn,VisibilityMPH,Wind Direction,Wind SpeedMPH,Gust SpeedMPH,PrecipitationIn,Events,Conditions,WindDirDegrees,DateUTC
12:54 AM,44.1,35.1,71,30.40,10.0,Calm,Calm,-,N/A,,Overcast,0,2013-01-09 05:54:00
1:16 AM,42.8,35.6,76,30.39,10.0,Calm,Calm,-,N/A,,Scattered Clouds,0,2013-01-09 06:16:00
1:54 AM,41.0,35.1,79,30.39,10.0,Calm,Calm,-,N/A,,Mostly Cloudy,0,2013-01-09 06:54:00
2:54 AM,39.0,33.1,79,30.39,10.0,Calm,Calm,-,N/A,,Partly Cloudy,0,2013-01-09 07:54:00
3:54 AM,37.9,34.0,86,30.39,10.0,Calm,Calm,-,N/A,,Mostly Cloudy,0,2013-01-09 08:54:00
4:54 AM,39.0,35.1,86,30.38,10.0,Calm,Calm,-,N/A,,Overcast,0,2013-01-09 09:54:00
5:54 AM,37.9,35.1,89,30.38,10.0,Calm,Calm,-,N/A,,Scattered Clouds,0,2013-01-09 10:54:00
6:54 AM,36.0,33.1,89,30.38,7.0,Calm,Calm,-,N/A,,Clear,0,2013-01-09 11:54:00
7:54 AM,36.0,33.1,89,30.41,7.0,Calm,Calm,-,N/A,,Clear,0,2013-01-09 12:54:00
8:54 AM,43.0,37.9,82,30.41,7.0,Calm,Calm,-,N/A,,Overcast,0,2013-01-09 13:54:00
9:54 AM,50.0,37.9,63,30.40,10.0,SSW,5.8,-,N/A,,Scattered Clouds,200,2013-01-09 14:54:00
10:03 AM,51.8,37.4,58,30.39,10.0,SSW,8.1,-,N/A,,Mostly Cloudy,210,2013-01-09 15:03:00
10:36 AM,53.6,39.2,58,30.38,10.0,South,8.1,-,N/A,,Scattered Clouds,180,2013-01-09 15:36:00
11:54 AM,57.9,43.0,58,30.32,10.0,SW,13.8,-,N/A,,Clear,220,2013-01-09 16:54:00
12:54 PM,60.1,44.1,55,30.29,10.0,SW,10.4,19.6,N/A,,Clear,220,2013-01-09 17:54:00
1:54 PM,61.0,44.1,54,30.29,10.0,WSW,12.7,20.7,N/A,,Mostly Cloudy,240,2013-01-09 18:54:00
2:54 PM,61.0,44.1,54,30.30,10.0,West,8.1,-,N/A,,Partly Cloudy,260,2013-01-09 19:54:00
3:54 PM,59.0,44.1,58,30.27,10.0,SW,9.2,-,N/A,,Clear,220,2013-01-09 20:54:00
4:54 PM,57.9,45.0,62,30.25,10.0,SSW,10.4,-,N/A,,Partly Cloudy,210,2013-01-09 21:54:00
6:54 PM,54.0,46.0,75,30.25,10.0,SW,8.1,-,N/A,,Clear,220,2013-01-09 23:54:00
7:54 PM,55.0,46.9,74,30.28,10.0,WSW,6.9,-,N/A,,Partly Cloudy,250,2013-01-10 00:54:00
8:54 PM,54.0,46.9,77,30.31,10.0,WNW,3.5,-,N/A,,Clear,290,2013-01-10 01:54:00
9:54 PM,52.0,45.0,77,30.33,10.0,Calm,Calm,-,N/A,,Clear,0,2013-01-10 02:54:00
10:54 PM,51.1,42.1,71,30.34,10.0,WNW,3.5,-,N/A,,Clear,290,2013-01-10 03:54:00
11:54 PM,50.0,36.0,59,30.35,10.0,NW,6.9,-,N/A,,Clear,310,2013-01-10 04:54:00